MESON-1

operational
NORAD ID: 59131 Int'l Des: 2024-043 Owner: ATOMOS Country: US
LEOCIRCULARRETROGRADESSO

About MESON-1

Description loading...

Live Position

Loading 3D Globe...

Upcoming Passes

Altitude History

Altitude vs Time

uPlot chart will show altitude changes over time

Two-Line Element Set

1 59131U 24043AK 26062.35931565 .00008732 00000-0 30518-3 0 9995
2 59131 97.5459 198.6422 0009258 252.5706 107.4522 15.29766577110898
Epoch: Mar 3, 2026 • Age: 26 hours

Current Status

Altitude 495.1 km
Velocity 7.62 km/s
Sub-Earth Point -58.61°S, 25.49°E
Launch Date Mar 4, 2024
Age 1.9 years
Type other

Technical Details

Classification Payload
Mass 100.00 kg
Dry Mass 100.00 kg
Total Mass 100.00 kg
Length 0.50 m
Diameter 1.00 m
Span 1.00 m
Shape Box + 2 pan
Manufacturer ATOMOS
Bus Type Atomos
Phase Status In Orbit
Owner/State ATOMOS/US

Large Constellations

Loading constellations...